User: anonymous   Login
Location: Unspecified
(0.0000°N, 0.0000°E)
Time: 19:50:55
(UTC+00:00)
Language:

CERISE - Orbit

View from above orbital plane
View from above orbital plane
View from above satellite
View from above satellite

Ground track
Ground track

The orbit data is extracted from the following two-line orbital elements,

1 23606U 95033B   17268.93166392 +.00000975 +00000-0 +96545-4 0  9994
2 23606 098.2616 215.0903 0004952 356.6204 003.4980 14.94344162201451
Epoch (UTC): 25 September 2017 22:21:35
Eccentricity: 0.0004952
inclination: 98.2616°
perigee height: 581 km
apogee height: 588 km
right ascension of ascending node: 215.0903°
argument of perigee: 356.6204°
revolutions per day: 14.94344162
mean anomaly at epoch: 3.4980°
orbit number at epoch: 20145

The dashed part of the orbit path shows where the satellite is in the earth's shadow,  

DLR